This demonstration page uses our WeatherBlox Daily Observations layout. Learn more.

Hourly Observations for June 16, 2020

Temp ( °F °C ) Dew Point ( °F °C ) Humidity (%) Winds ( mph kmh ) Pressure ( in mb ) Visibility ( mi km ) Precip ( " mm )
12:54 am 00:54 Clear 76 24.4 60 15.6 58 58 S 12 19 30.06 1018 10 16.0934 0 0
1:54 am 01:54 Clear 74 23.3 61 16.1 64 64 S 12 19 30.06 1018 10 16.0934 0 0
2:54 am 02:54 Clear 73 22.8 61 16.1 66 66 SSE 12 19 30.06 1018 10 16.0934 0 0
3:54 am 03:54 Clear 72 22.2 61 16.1 68 68 SSE 10 17 30.06 1018 10 16.0934 0 0
4:54 am 04:54 Clear 70 21.1 61 16.1 73 73 S 9 15 30.07 1018 10 16.0934 0 0
5:54 am 05:54 Clear 70 21.1 61 16.1 73 73 SSE 12 19 30.08 1019 10 16.0934 0 0
6:54 am 06:54 Sunny 71 21.7 61 16.1 71 71 SSE 13 20 30.09 1019 10 16.0934 0 0
7:54 am 07:54 Sunny 75 23.9 62 16.7 64 64 S 14 22 30.08 1019 10 16.0934 0 0
8:54 am 08:54 Sunny 80 26.7 62 16.7 54 54 S 16 26 30.08 1019 10 16.0934 0 0
9:54 am 09:54 Sunny 84 28.9 62 16.7 48 48 S 21 33 30.06 1018 10 16.0934 0 0
10:54 am 10:54 Sunny 87 30.6 63 17.2 45 45 S 18 30 30.05 1018 10 16.0934 0 0
11:54 am 11:54 Sunny 89 31.7 62 16.7 41 41 S 21 33 30.05 1018 10 16.0934 0 0
12:54 pm 12:54 Mostly Sunny 90 32.2 61 16.1 38 38 S 24 39 30.03 1017 10 16.0934 0 0
1:54 pm 13:54 Partly Cloudy 91 32.8 59 15 34 34 S 21 33 30.01 1016 10 16.0934 0 0
2:54 pm 14:54 Sunny 93 33.9 57 13.9 30 30 S 24 39 30 1016 10 16.0934 0 0
3:54 pm 15:54 Partly Cloudy 92 33.3 58 14.4 32 32 S 23 37 29.98 1015 10 16.0934 0 0
4:54 pm 16:54 Mostly Sunny 92 33.3 59 15 33 33 S 20 31 29.96 1014 10 16.0934 0 0
5:54 pm 17:54 Sunny 91 32.8 60 15.6 35 35 S 23 37 29.93 1014 10 16.0934 0 0
6:54 pm 18:54 Sunny 89 31.7 60 15.6 38 38 SSE 22 35 29.93 1013 10 16.0934 0 0
7:54 pm 19:54 Sunny 87 30.6 59 15 39 39 SSE 16 26 29.92 1013 10 16.0934 0 0
8:54 pm 20:54 Sunny 84 28.9 59 15 43 43 SSE 14 22 29.93 1014 10 16.0934 0 0
9:54 pm 21:54 Clear 83 28.3 61 16.1 48 48 SSE 17 28 29.94 1014 10 16.0934 0 0
10:54 pm 22:54 Clear 82 27.8 61 16.1 49 49 SSE 17 28 29.95 1014 10 16.0934 0 0
11:54 pm 23:54 Clear 80 26.7 62 16.7 54 54 SE 16 26 29.95 1014 10 16.0934 0 0

Powered by AerisWeather